| time (UTC) | temp C | wind direction | speed KPH | gust KPH | rain 1hr cm | rain 24hr cm | rain mn cm | humidity % | barometer mb |
| 20260506062019 | 15 | 306 | 1.6 | 3.2 | 0.00 | 0.00 | 0.00 | 71 | 1010.6 |
| 20260506061035 | 15 | 0.0 | 0.0 | 0.00 | 0.00 | 0.00 | 71 | 1010.4 | |
| 20260506051047 | 13 | 307 | 6.4 | 11.3 | 0.00 | 0.00 | 0.00 | 76 | 1010.2 |
| 20260506045038 | 13 | 307 | 3.2 | 11.3 | 0.00 | 0.00 | 0.00 | 78 | 1010.2 |
| 20260506044053 | 13 | 277 | 1.6 | 6.4 | 0.00 | 0.00 | 0.00 | 79 | 1010.1 |
| 20260506043028 | 13 | 322 | 3.2 | 6.4 | 0.00 | 0.00 | 0.00 | 79 | 1010.0 |
| 20260506042024 | 13 | 316 | 3.2 | 9.7 | 0.00 | 0.00 | 0.00 | 79 | 1009.9 |
| 20260506041019 | 13 | 334 | 1.6 | 3.2 | 0.00 | 0.00 | 0.00 | 78 | 1010.0 |
| 20260506040035 | 13 | 334 | 3.2 | 6.4 | 0.00 | 0.00 | 0.00 | 76 | 1009.9 |
| 20260506035030 | 14 | 321 | 1.6 | 4.8 | 0.00 | 0.00 | 0.00 | 75 | 1009.8 |
| 20260506034025 | 14 | 328 | 1.6 | 6.4 | 0.00 | 0.00 | 0.00 | 75 | 1009.8 |
| 20260506033021 | 14 | 332 | 1.6 | 4.8 | 0.00 | 0.00 | 0.00 | 75 | 1009.9 |
| 20260506032016 | 14 | 329 | 1.6 | 4.8 | 0.00 | 0.00 | 0.00 | 76 | 1010.0 |
| 20260506031032 | 14 | 326 | 0.0 | 3.2 | 0.00 | 0.00 | 0.00 | 76 | 1010.2 |
| 20260506030127 | 14 | 323 | 1.6 | 4.8 | 0.00 | 0.00 | 0.00 | 76 | 1010.2 |
| 20260506025023 | 14 | 329 | 1.6 | 1.6 | 0.00 | 0.00 | 0.00 | 75 | 1010.2 |
| 20260506024019 | 14 | 313 | 1.6 | 4.8 | 0.00 | 0.00 | 0.00 | 75 | 1010.1 |
| 20260506023033 | 15 | 280 | 1.6 | 3.2 | 0.00 | 0.00 | 0.00 | 75 | 1010.2 |
| 20260506022049 | 15 | 307 | 0.0 | 3.2 | 0.00 | 0.00 | 0.00 | 74 | 1010.0 |
| 20260506021024 | 15 | 310 | 1.6 | 3.2 | 0.00 | 0.00 | 0.00 | 72 | 1009.8 |
| 20260506020020 | 15 | 328 | 0.0 | 3.2 | 0.00 | 0.00 | 0.00 | 72 | 1009.9 |
| 20260506015055 | 15 | 330 | 1.6 | 3.2 | 0.00 | 0.00 | 0.00 | 71 | 1009.9 |
| 20260506014031 | 15 | 327 | 3.2 | 6.4 | 0.00 | 0.00 | 0.00 | 69 | 1009.8 |
| 20260506013026 | 15 | 328 | 0.0 | 1.6 | 0.00 | 0.00 | 0.00 | 68 | 1010.0 |
| 20260506012021 | 15 | 338 | 0.0 | 3.2 | 0.00 | 0.00 | 0.00 | 67 | 1009.9 |
| 20260506011037 | 15 | 295 | 1.6 | 6.4 | 0.00 | 0.00 | 0.00 | 67 | 1010.1 |
| 20260506010032 | 15 | 300 | 1.6 | 3.2 | 0.00 | 0.00 | 0.00 | 66 | 1010.1 |
| 20260506005027 | 15 | 298 | 0.0 | 3.2 | 0.00 | 0.00 | 0.00 | 65 | 1010.2 |
| 20260506004023 | 16 | 298 | 1.6 | 3.2 | 0.00 | 0.00 | 0.00 | 65 | 1010.3 |
| 20260506003019 | 16 | 303 | 0.0 | 3.2 | 0.00 | 0.00 | 0.00 | 64 | 1010.4 |
| 20260506002055 | 16 | 275 | 1.6 | 3.2 | 0.00 | 0.00 | 0.00 | 64 | 1010.4 |
| 20260506001029 | 16 | 263 | 1.6 | 3.2 | 0.00 | 0.00 | 0.00 | 63 | 1010.5 |
| 20260506000024 | 16 | 263 | 1.6 | 1.6 | 0.00 | 0.00 | 0.00 | 63 | 1010.6 |
| 20260505235020 | 16 | 272 | 1.6 | 3.2 | 0.00 | 0.00 | 0.00 | 63 | 1010.6 |
| 20260505234016 | 16 | 286 | 0.0 | 1.6 | 0.00 | 0.00 | 0.00 | 63 | 1010.4 |
| 20260505233031 | 16 | 332 | 0.0 | 1.6 | 0.00 | 0.00 | 0.00 | 63 | 1010.5 |
| 20260505232026 | 16 | 0.0 | 0.0 | 0.00 | 0.00 | 0.00 | 62 | 1010.5 | |
| 20260505231021 | 16 | 18 | 0.0 | 1.6 | 0.00 | 0.00 | 0.00 | 62 | 1010.4 |
| 20260505230017 | 16 | 34 | 1.6 | 4.8 | 0.00 | 0.00 | 0.00 | 62 | 1010.3 |
| 20260505225032 | 16 | 48 | 1.6 | 3.2 | 0.00 | 0.00 | 0.00 | 63 | 1010.1 |
| 20260505224028 | 16 | 60 | 1.6 | 4.8 | 0.00 | 0.00 | 0.00 | 63 | 1010.3 |
| 20260505223023 | 16 | 73 | 0.0 | 3.2 | 0.00 | 0.00 | 0.00 | 64 | 1010.3 |
| 20260505222019 | 16 | 66 | 1.6 | 6.4 | 0.00 | 0.00 | 0.00 | 62 | 1010.3 |
| 20260505221034 | 16 | 33 | 4.8 | 12.9 | 0.00 | 0.00 | 0.00 | 62 | 1010.2 |
| 20260505220029 | 17 | 44 | 4.8 | 11.3 | 0.00 | 0.00 | 0.00 | 62 | 1010.2 |
| 20260505215025 | 17 | 52 | 3.2 | 14.5 | 0.00 | 0.00 | 0.00 | 62 | 1010.2 |
| 20260505214020 | 17 | 53 | 6.4 | 16.1 | 0.00 | 0.00 | 0.00 | 62 | 1010.1 |
| 20260505213015 | 17 | 43 | 9.7 | 17.7 | 0.00 | 0.00 | 0.00 | 62 | 1010.0 |
| 20260505212031 | 17 | 46 | 9.7 | 24.1 | 0.00 | 0.00 | 0.00 | 62 | 1010.1 |
| 20260505211027 | 17 | 56 | 11.3 | 22.5 | 0.00 | 0.00 | 0.00 | 62 | 1010.2 |
| 20260505210042 | 17 | 56 | 8.0 | 20.9 | 0.00 | 0.00 | 0.00 | 63 | 1010.2 |
| 20260505205017 | 17 | 56 | 8.0 | 20.9 | 0.00 | 0.00 | 0.00 | 67 | 1009.9 |
| 20260505204033 | 17 | 47 | 17.7 | 30.6 | 0.00 | 0.00 | 0.00 | 71 | 1009.8 |
| 20260505203028 | 17 | 53 | 16.1 | 35.4 | 0.00 | 0.00 | 0.00 | 74 | 1009.7 |
| 20260505202023 | 17 | 53 | 9.7 | 24.1 | 0.00 | 0.00 | 0.00 | 75 | 1009.6 |
| 20260505201019 | 17 | 58 | 12.9 | 24.1 | 0.00 | 0.00 | 0.00 | 76 | 1009.5 |
| 20260505200034 | 17 | 51 | 9.7 | 27.4 | 0.00 | 0.00 | 0.00 | 77 | 1009.3 |
| 20260505195030 | 18 | 49 | 11.3 | 27.4 | 0.00 | 0.00 | 0.00 | 77 | 1008.9 |
| 20260505194026 | 18 | 67 | 11.3 | 20.9 | 0.00 | 0.00 | 0.00 | 79 | 1008.7 |
| 20260505193041 | 18 | 60 | 8.0 | 27.4 | 0.00 | 0.00 | 0.00 | 80 | 1008.7 |
| 20260505192056 | 18 | 58 | 9.7 | 27.4 | 0.00 | 0.00 | 0.00 | 82 | 1008.5 |
| 20260505191032 | 18 | 58 | 12.9 | 30.6 | 0.00 | 0.00 | 0.00 | 83 | 1008.3 |
| 20260505190027 | 18 | 58 | 12.9 | 29.0 | 0.00 | 0.00 | 0.00 | 82 | 1008.0 |
| 20260505185022 | 18 | 65 | 11.3 | 27.4 | 0.00 | 0.00 | 0.00 | 81 | 1007.9 |
| 20260505184018 | 18 | 55 | 11.3 | 29.0 | 0.00 | 0.00 | 0.00 | 80 | 1007.7 |
| 20260505183033 | 19 | 52 | 8.0 | 20.9 | 0.00 | 0.00 | 0.00 | 78 | 1007.6 |
| 20260505182028 | 20 | 55 | 11.3 | 24.1 | 0.00 | 0.00 | 0.00 | 77 | 1007.6 |
| 20260505181044 | 20 | 70 | 9.7 | 22.5 | 0.00 | 0.00 | 0.00 | 76 | 1007.4 |
| 20260505180020 | 21 | 74 | 6.4 | 17.7 | 0.00 | 0.00 | 0.00 | 71 | 1007.3 |
| 20260505175035 | 21 | 88 | 8.0 | 17.7 | 0.00 | 0.00 | 0.00 | 68 | 1007.0 |
| 20260505174031 | 21 | 82 | 8.0 | 20.9 | 0.00 | 0.00 | 0.00 | 65 | 1006.9 |
| 20260505173025 | 22 | 99 | 12.9 | 22.5 | 0.00 | 0.00 | 0.00 | 60 | 1006.7 |
| 20260505172021 | 22 | 95 | 9.7 | 20.9 | 0.00 | 0.00 | 0.00 | 57 | 1006.8 |
| 20260505171016 | 23 | 93 | 4.8 | 14.5 | 0.00 | 0.00 | 0.00 | 52 | 1006.8 |
| 20260505170032 | 23 | 84 | 3.2 | 9.7 | 0.00 | 0.00 | 0.00 | 48 | 1006.8 |
| 20260505165028 | 23 | 4 | 16.1 | 30.6 | 0.00 | 0.00 | 0.00 | 47 | 1006.8 |
| 20260505164023 | 25 | 321 | 6.4 | 16.1 | 0.00 | 0.00 | 0.00 | 24 | 1006.9 |
| 20260505163018 | 25 | 259 | 8.0 | 16.1 | 0.00 | 0.00 | 0.00 | 24 | 1007.0 |
| 20260505162034 | 25 | 265 | 9.7 | 17.7 | 0.00 | 0.00 | 0.00 | 24 | 1007.0 |
| 20260505161030 | 25 | 309 | 9.7 | 22.5 | 0.00 | 0.00 | 0.00 | 23 | 1007.0 |
| 20260505153051 | 25 | 293 | 11.3 | 20.9 | 0.00 | 0.00 | 0.00 | 24 | 1006.9 |
| 20260505152026 | 25 | 278 | 12.9 | 24.1 | 0.00 | 0.00 | 0.00 | 24 | 1006.9 |
| 20260505151021 | 25 | 282 | 8.0 | 22.5 | 0.00 | 0.00 | 0.00 | 24 | 1007.1 |
| 20260505125017 | 24 | 285 | 8.0 | 25.7 | 0.00 | 0.00 | 0.00 | 27 | 1008.2 |
| 20260505124032 | 24 | 244 | 11.3 | 22.5 | 0.00 | 0.00 | 0.00 | 28 | 1008.3 |
| 20260505123048 | 23 | 310 | 9.7 | 24.1 | 0.00 | 0.00 | 0.00 | 28 | 1008.2 |
| 20260505122023 | 23 | 295 | 6.4 | 14.5 | 0.00 | 0.00 | 0.00 | 28 | 1008.2 |
| 20260505121019 | 24 | 259 | 12.9 | 25.7 | 0.00 | 0.00 | 0.00 | 29 | 1008.2 |
| 20260505120035 | 25 | 240 | 8.0 | 17.7 | 0.00 | 0.00 | 0.00 | 27 | 1008.3 |
| 20260505115050 | 25 | 216 | 9.7 | 29.0 | 0.00 | 0.00 | 0.00 | 27 | 1008.2 |
| 20260505114045 | 24 | 264 | 6.4 | 14.5 | 0.00 | 0.00 | 0.00 | 27 | 1008.5 |
| 20260505113020 | 24 | 278 | 6.4 | 17.7 | 0.00 | 0.00 | 0.00 | 28 | 1008.6 |
| 20260505112015 | 24 | 271 | 4.8 | 12.9 | 0.00 | 0.00 | 0.00 | 28 | 1008.8 |
| 20260505111031 | 24 | 280 | 3.2 | 9.7 | 0.00 | 0.00 | 0.00 | 29 | 1008.9 |
| 20260505102027 | 23 | 244 | 1.6 | 9.7 | 0.00 | 0.00 | 0.00 | 33 | 1009.3 |
| 20260505101021 | 23 | 246 | 3.2 | 6.4 | 0.00 | 0.00 | 0.00 | 33 | 1009.4 |
| 20260505100017 | 22 | 327 | 3.2 | 9.7 | 0.00 | 0.00 | 0.00 | 33 | 1009.5 |
| 20260505095033 | 22 | 279 | 8.0 | 12.9 | 0.00 | 0.00 | 0.00 | 34 | 1009.5 |
| 20260505094048 | 22 | 296 | 8.0 | 17.7 | 0.00 | 0.00 | 0.00 | 32 | 1009.5 |
| 20260505093044 | 22 | 281 | 4.8 | 11.3 | 0.00 | 0.00 | 0.00 | 36 | 1009.4 |
| 20260505092019 | 22 | 294 | 6.4 | 14.5 | 0.00 | 0.00 | 0.00 | 37 | 1009.7 |
| 20260505091034 | 22 | 284 | 1.6 | 4.8 | 0.00 | 0.00 | 0.00 | 45 | 1009.6 |
| 20260505090030 | 21 | 269 | 4.8 | 9.7 | 0.00 | 0.00 | 0.00 | 49 | 1009.7 |
| 20260505085025 | 21 | 224 | 4.8 | 9.7 | 0.00 | 0.00 | 0.00 | 51 | 1009.7 |
| 20260505084020 | 20 | 321 | 3.2 | 9.7 | 0.00 | 0.00 | 0.00 | 50 | 1009.8 |
| 20260505083036 | 20 | 259 | 3.2 | 9.7 | 0.00 | 0.00 | 0.00 | 55 | 1009.8 |
| 20260505082032 | 19 | 267 | 3.2 | 6.4 | 0.00 | 0.00 | 0.00 | 59 | 1009.9 |
| 20260505081046 | 18 | 253 | 6.4 | 11.3 | 0.00 | 0.00 | 0.00 | 61 | 1009.9 |
| 20260505080022 | 18 | 270 | 4.8 | 9.7 | 0.00 | 0.00 | 0.00 | 62 | 1009.9 |
| 20260505075018 | 18 | 285 | 4.8 | 12.9 | 0.00 | 0.00 | 0.00 | 60 | 1010.1 |
| 20260505074033 | 18 | 282 | 6.4 | 12.9 | 0.00 | 0.00 | 0.00 | 59 | 1010.1 |
| 20260505073029 | 17 | 286 | 6.4 | 14.5 | 0.00 | 0.00 | 0.00 | 61 | 1010.1 |
| 20260505072024 | 17 | 318 | 8.0 | 14.5 | 0.00 | 0.00 | 0.00 | 64 | 1010.2 |
| 20260505071020 | 17 | 308 | 3.2 | 9.7 | 0.00 | 0.00 | 0.00 | 70 | 1010.2 |